Flag for U.S.A. Weather past 2 weeks in Visalia, California, U.S.A.

Now
95 °F

Sunny.


Feels Like: 95 °F
Forecast: 66 / 94 °F
Wind: 8 mph from Northwest

Location: Visalia Municipal

Current Time: Aug 2, 2015 at 6:03:01 PM

Latest Report: Aug 2, 2015 at 5:35 PM


Visibility: 10 mi

Pressure: 29.73 "Hg

Humidity: 32%

Dew point: 61 °F

Location of VisaliaLocation

Historic Weather in Visalia — Graph

°F

Visalia temperature yesterday

Maximum temperature yesterday: 99 °F (at 4:15 PM)
Minimum temperature yesterday: 70 °F (at 5:35 AM)
Average temperature yesterday: 84 °F

Past Weeks' High & Low Weather Summary

 TemperatureHumidityPressure
High108 °F (Jul 29, 4:35 PM)78% (Jul 20, 8:35 AM)30.06 "Hg (Jul 20, 8:35 AM)
Low61 °F (Jul 24, 6:15 AM)11% (Jul 29, 6:35 PM)29.70 "Hg (Jul 21, 5:55 PM)
Average82 °F45%29.87 "Hg
* Reported Jul 18 4:15 PM — Aug 2 4:55 PM, Visalia, Weather by CustomWeather, © 2015

Note: Actual official high and low records may vary slightly from our data, if they occured in-between our weather recording intervals... More about our weather records

Advertising

Visalia weather history for previous 24 hours

 ConditionsComfort  
Time TempWeatherWind HumidityBarometerVisibility
4:55 PM
Sun, Aug 2
95 °FSunny.10 mph30%29.74 "Hg10 mi
4:35 PM97 °FSunny.9 mph27%29.75 "Hg10 mi
4:15 PM95 °FSunny.9 mph30%29.76 "Hg10 mi
3:55 PM93 °FSunny.10 mph30%29.77 "Hg10 mi
3:15 PM93 °FSunny.8 mph30%29.79 "Hg10 mi
2:55 PM93 °FSunny.9 mph30%29.80 "Hg10 mi
2:35 PM93 °FSunny.9 mph30%29.81 "Hg10 mi
1:55 PM91 °FSunny.7 mph32%29.83 "Hg10 mi
1:35 PM91 °FSunny.7 mph32%29.83 "Hg10 mi
1:15 PM90 °FSunny.5 mph31%29.84 "Hg10 mi
12:55 PM90 °FSunny.9 mph31%29.85 "Hg10 mi
12:35 PM90 °FSunny.8 mph29%29.86 "Hg10 mi
12:15 PM90 °FSunny.9 mph29%29.86 "Hg10 mi
11:55 AM88 °FSunny.8 mph33%29.87 "Hg10 mi
11:35 AM84 °FSunny.No wind37%29.87 "Hg10 mi
11:15 AM82 °FSunny.3 mph40%29.87 "Hg10 mi
10:55 AM82 °FSunny.5 mph40%29.88 "Hg10 mi
10:35 AM81 °FSunny.6 mph42%29.88 "Hg10 mi
10:15 AM81 °FSunny.3 mph42%29.88 "Hg10 mi
9:55 AM79 °FSunny.5 mph45%29.89 "Hg10 mi
9:35 AM77 °FSunny.5 mph47%29.89 "Hg6 mi
9:15 AM75 °FSunny.3 mph47%29.89 "Hg10 mi
8:55 AM75 °FSunny.No wind50%29.89 "Hg10 mi
8:35 AM73 °FSunny.No wind53%29.89 "Hg10 mi
8:15 AM72 °FSunny.No wind57%29.89 "Hg10 mi
7:55 AM72 °FSunny.No wind53%29.88 "Hg10 mi
7:35 AM70 °FSunny.No wind57%29.88 "Hg10 mi
7:15 AM68 °FSunny.No wind64%29.87 "Hg10 mi
6:55 AM66 °FClear.No wind68%29.87 "Hg10 mi
6:35 AM64 °FClear.No wind73%29.86 "Hg10 mi
6:15 AM64 °FClear.3 mph73%29.87 "Hg9 mi
5:55 AM64 °FClear.3 mph68%29.86 "Hg10 mi
5:35 AM66 °FClear.No wind64%29.85 "Hg10 mi
5:15 AM66 °FMild.No wind64%29.85 "Hg10 mi
11:55 PM
Sat, Aug 1
81 °FClear.9 mph45%29.83 "Hg10 mi
11:35 PM81 °FClear.9 mph45%29.83 "Hg10 mi
11:15 PM82 °FClear.8 mph42%29.83 "Hg10 mi
10:55 PM82 °FClear.9 mph42%29.83 "Hg10 mi
10:35 PM82 °FClear.10 mph42%29.83 "Hg10 mi
10:15 PM84 °FClear.13 mph40%29.83 "Hg10 mi
9:55 PM84 °FClear.13 mph43%29.83 "Hg10 mi
9:35 PM84 °FClear.13 mph43%29.82 "Hg10 mi
9:15 PM84 °FClear.10 mph43%29.81 "Hg10 mi
8:55 PM86 °FSunny.9 mph40%29.80 "Hg10 mi
8:35 PM88 °FSunny.9 mph38%29.79 "Hg10 mi
8:15 PM88 °FSunny.8 mph40%29.79 "Hg10 mi
7:55 PM91 °FSunny.6 mph34%29.78 "Hg10 mi
7:35 PM91 °FSunny.8 mph36%29.77 "Hg10 mi
6:55 PM97 °FSunny.10 mph27%29.77 "Hg10 mi
6:35 PM99 °FSunny.10 mph24%29.77 "Hg10 mi
Weather by CustomWeather, © 2015

See weather overviewHow to use our weather pages